CAPE
28 37 75 167 67 68 120 130 147 356 875 855 1323 1339 472 252 38 0 2 1 1296 2205 2334 2135 1646 1547 1488 1377 1284 1049 877 329 318 402 612 763 553 285 241 329 356 492 605
1 10 11 74 79 80 130 79 86 89 94 218 974 1071 576 100 0 0 0 1 794 1401 1359 1349 1285 1319 1246 1116 947 436 126 32 42 14 68 96 79 138 33 85 267 421 491
14 6 25 9 99 50 31 34 59 8 22 18 123 350 427 211 68 380 221 535 295 384 588 747 799 854 629 521 415 351 201 57 13 0 0 0 0 0 0 0 3 209 341
0 0 3 13 44 126 92 0 1 11 4 0 22 13 198 146 39 154 332 282 53 73 158 337 366 248 262 196 156 271 170 29 0 0 0 0 0 0 0 0 0 40 36
1 0 2 6 0 40 6 0 0 0 0 1 0 14 99 293 126 92 47 315 426 464 389 282 185 169 211 264 324 244 76 0 0 0 0 0 0 0 0 0 0 8 10
5 0 2 0 0 0 22 0 0 15 0 0 0 80 204 5 203 101 325 198 244 286 391 187 186 106 0 0 2 0 0 0 0 0 0 0 0 0 0 0 0 0 0
3 1 2 11 8 7 0 28 8 0 0 0 0 1 0 2 127 120 56 215 198 345 434 405 254 326 45 6 0 0 0 0 0 0 0 0 0 0 0 0 5 0 15
0 0 2 8 19 22 17 3 46 15 0 0 0 0 0 6 3 74 103 186 416 761 694 639 838 482 357 275 219 33 10 0 0 0 0 0 0 0 0 0 0 0 0
10 8 0 1 2 0 2 38 27 61 34 0 0 0 0 1 2 0 0 29 148 54 519 1029 961 1003 919 606 490 426 320 277 61 0 0 0 0 0 0 0 0 0 0
7 3 0 0 0 1 0 0 13 13 32 44 0 0 0 0 0 0 0 59 110 24 0 962 1134 1166 1031 696 550 463 336 197 34 0 0 0 0 0 0 0 0 0 0
14 8 2 5 0 0 0 0 0 4 16 14 26 11 0 0 55 31 0 4 30 254 36 184 474 784 820 719 623 594 426 303 89 0 0 0 0 0 0 0 0 0 0
9 2 11 2 0 0 1 1 0 0 0 1 12 25 4 1 0 0 16 62 100 339 359 556 496 700 613 351 290 513 385 97 10 0 0 0 0 0 0 0 0 22 69
16 19 7 0 0 1 3 0 0 0 0 2 0 1 12 12 0 0 0 0 2 130 430 437 205 466 219 232 110 169 29 3 0 0 0 0 0 0 0 0 25 150 43
12 1 3 2 11 7 1 5 3 0 0 0 1 6 5 18 17 9 0 0 0 0 2 236 291 68 0 1 0 0 1 0 0 0 0 0 0 0 0 0 16 7 1
4 0 3 7 3 3 5 6 7 5 7 4 3 7 16 16 7 0 0 1 0 0 0 4 40 33 27 0 34 13 0 0 0 0 0 0 0 0 0 0 0 0 0
2 0 0 1 5 4 8 7 1 0 0 1 0 2 3 5 0 0 0 0 0 0 0 0 0 0 4 3 5 3 0 0 0 0 0 0 0 0 0 0 0 1 82
6 3 2 3 5 4 5 6 6 3 1 0 0 0 0 0 0 0 0 0 0 0 0 1 0 5 0 0 47 0 0 0 0 0 0 0 0 0 0 0 0 0 149
1 2 3 3 3 3 2 2 2 2 3 3 2 1 0 0 0 0 0 0 0 0 0 0 38 12 1 9 0 57 34 5 0 0 0 0 0 0 0 0 0 2 89
1 1 2 2 2 2 1 2 3 4 2 2 3 3 1 0 0 0 0 0 0 0 0 0 4 57 12 3 34 6 7 5 1 0 0 0 0 0 1 6 0 29 70
2 2 1 2 2 2 2 2 2 2 2 1 1 2 2 2 3 1 1 0 0 0 0 0 0 6 10 10 2 0 0 0 0 0 0 1 0 6 6 4 16 139 76
4 4 4 3 4 4 4 4 3 3 3 3 2 3 1 3 5 2 2 2 0 0 0 0 0 0 0 1 0 0 0 0 0 0 0 0 0 0 16 43 66 80 34
3 4 5 5 4 5 6 5 5 4 4 3 3 1 0 2 6 4 3 2 4 2 0 0 0 2 1 3 0 0 8 19 20 15 0 0 3 1 21 36 43 43 69
1 1 1 2 1 1 1 1 2 1 1 1 1 2 0 1 3 2 2 3 3 5 0 0 0 1 3 6 32 17 11 9 2 0 0 6 27 53 35 62 7 18 66
2 2 2 2 1 2 2 3 1 1 1 2 1 1 1 1 4 4 2 1 1 3 0 0 0 0 0 4 25 10 8 0 1 1 21 6 41 27 56 14 12 30 3
5 5 5 4 4 5 3 4 4 4 2 1 2 1 1 2 2 1 0 1 1 1 0 0 0 0 0 0 10 3 3 0 5 16 17 46 47 59 44 37 26 0 0
6 6 5 5 5 5 6 5 5 6 4 2 2 0 1 1 0 0 1 2 0 0 0 0 0 0 0 0 0 0 0 0 0 0 23 36 63 17 10 36 12 0 0
CIN
-27 -55 -9 -13 -27 -47 -50 -59 -79 -59 -17 -49 -30 -26 -63 -45 -54 0 -40 -4 -1 -4 -4 -4 -29 -30 -21 -18 -10 -13 -11 -16 -6 -23 -8 -9 -27 -27 -22 -16 -20 -23 -20
-4 -39 -45 -8 -17 -32 -23 -54 -64 -79 -97 -83 -14 -9 -36 -98 0 0 0 -3 -3 -3 -24 -20 -6 -14 -21 -25 -29 -40 -78 -88 -58 -107 -72 -66 -84 -43 -57 -31 -11 -8 -8
-8 -4 -5 -20 -9 -8 -44 -78 -89 -54 -114 -133 -73 -22 -13 -45 -93 -25 -110 -5 -35 -55 -39 -58 -57 -13 -43 -70 -66 -102 -99 -140 -199 0 0 0 0 0 0 0 -2 -16 -15
0 0 -8 -11 -4 -6 -20 -1 -12 -127 -79 0 -84 -43 -7 -20 -43 -40 -17 -40 -183 -185 -131 -78 -114 -113 -77 -98 -138 -139 -137 -188 0 0 0 0 0 0 0 0 0 -26 -12
-3 0 -2 -5 -4 -5 -29 -1 0 0 0 -51 0 -93 -77 -6 -24 -25 -47 -39 -56 -72 -88 -109 -114 -123 -89 -57 -105 -110 -156 -40 0 0 0 0 0 0 0 0 0 -5 -11
-9 -0 -3 0 0 0 -3 -2 0 -160 0 0 0 -149 -34 -154 -97 -16 -6 -35 -52 -65 -35 -96 -86 -157 0 0 -113 0 0 0 0 0 0 0 0 0 0 0 0 0 0
-3 -0 -1 -1 -1 -1 -0 -6 -23 0 -37 0 0 -42 0 -9 -24 -35 -71 -15 -31 -26 -26 -23 -44 -29 -84 -111 0 0 0 0 0 0 0 0 0 0 0 0 -17 0 -7
0 -5 -5 -7 -1 -3 -1 -8 -8 -27 0 0 0 0 -25 -27 -25 -92 -93 -48 -39 -9 -6 -8 -12 -18 -28 -38 -51 -53 -58 0 0 0 0 0 0 0 0 0 0 0 0
-1 -3 0 -24 -43 0 -3 -2 -5 -5 -39 0 0 0 0 -123 -56 0 0 -101 -50 -53 -38 -10 -11 -10 -10 -26 -22 -28 -57 -80 -45 0 0 0 0 0 0 0 0 0 0
-1 -3 0 0 0 -32 0 0 -13 -20 -8 -3 -0 0 0 0 0 0 0 -95 -65 -12 -4 -8 -5 -11 -21 -35 -21 -20 -38 -78 -99 0 0 0 0 0 0 0 0 0 0
-1 -2 -3 -8 0 0 0 0 0 -6 -19 -13 -2 -2 0 -2 -79 -100 0 -80 -64 -25 -31 -27 -17 -11 -10 -25 -33 -35 -57 -72 -89 0 0 0 0 0 0 0 0 0 0
-3 -12 0 -2 -18 0 -2 -2 0 0 0 -15 -16 -3 -6 -1 0 0 -33 -87 -56 -12 -20 -14 -18 -17 -30 -45 -65 -37 -64 -102 -72 0 0 0 0 0 0 0 0 -98 -49
-0 -1 -2 0 -9 -5 -12 0 0 0 0 -42 0 -14 -6 -0 0 0 0 0 -114 -50 -5 -16 -32 -28 -43 -46 -87 -102 -145 -44 0 0 0 0 0 0 0 0 -116 -31 -60
-0 -1 -0 -0 -0 -1 -8 -2 -4 -1 0 0 -0 -8 -17 -2 -0 -0 -0 0 0 0 -77 -19 -16 -46 -0 -41 0 0 -74 0 0 0 0 0 0 0 0 0 -213 -223 -31
-1 -1 -1 -0 -0 -0 -1 -0 -0 -0 -0 -0 -0 -1 -0 -0 -6 0 0 0 0 0 0 -47 -132 -106 -39 0 -192 -134 0 0 0 0 0 0 0 0 0 0 -146 0 0
-0 -1 -0 -1 -0 -0 -0 -0 -1 0 -1 -5 0 -2 -2 -4 0 0 0 0 0 0 0 0 0 0 -16 -74 -175 -128 0 0 0 0 0 0 0 0 0 0 0 -177 -20
0 0 -0 -0 -0 0 0 0 0 -0 -4 0 0 0 0 0 0 0 0 0 0 0 0 -4 0 -119 0 0 -69 0 0 0 0 0 0 0 0 0 0 0 0 0 -1
0 0 0 0 0 0 0 0 0 0 0 0 -1 -3 -0 0 0 0 0 0 0 0 0 0 -62 -125 -1 -92 0 -97 -176 -5 0 0 0 0 0 0 0 0 -51 -27 -7
0 0 0 0 0 0 0 0 0 0 0 0 0 -0 -0 0 0 0 0 0 0 0 0 0 -42 -77 -2 -15 -120 -1 -6 -4 -1 0 0 0 0 0 -165 -221 0 -34 -17
0 0 0 0 0 0 0 0 0 0 0 0 0 0 0 -0 0 0 0 0 0 0 0 0 0 -36 -11 -4 -2 0 0 -1 0 0 0 -1 0 -257 -235 -169 -76 -1 -18
0 0 0 0 0 0 0 0 0 0 0 0 0 0 -0 0 0 0 0 0 0 0 0 0 0 0 0 -17 0 -1 -0 -0 -0 0 0 0 0 0 -132 -20 -17 -17 -10
0 0 0 0 0 0 0 0 0 0 0 0 0 0 0 -0 0 0 0 -0 0 -0 0 0 0 -19 -27 -16 -2 0 -8 -9 -8 -6 0 0 -2 -2 -73 -24 -25 -28 -11
0 0 0 0 0 0 0 0 0 0 0 0 0 0 0 0 0 0 0 -0 -0 -0 0 0 -1 -22 -32 -57 -14 -4 -6 -2 -5 -2 -0 -5 -55 -24 -37 -22 -45 -36 -7
0 0 0 0 0 0 0 0 0 0 0 0 0 0 0 0 0 0 0 0 -0 -0 -0 0 0 0 -4 -26 -19 -11 -8 0 -30 -13 -4 -6 -35 -46 -30 -45 -43 -2 -33
0 0 0 0 0 0 0 0 0 0 0 0 0 0 0 0 0 -0 -0 -0 -1 -3 0 0 0 0 0 -14 -15 -20 -28 -17 -35 -11 -5 -46 -44 -36 -29 -54 -10 0 0
0 0 0 0 0 0 0 0 0 0 0 0 0 0 -0 -1 -0 -0 -0 -0 -1 0 0 0 0 0 0 0 -1 0 0 0 0 0 -16 -59 -48 -48 -48 -8 -26 0 0
Wind_Speed
33 33 34 30 32 35 38 38 39 40 44 48 49 46 40 35 34 44 44 52 16 13 15 16 17 19 22 25 27 25 31 33 23 31 31 30 30 32 32 30 30 30 33
35 35 37 35 33 34 35 36 37 40 41 47 46 44 41 43 41 41 40 56 22 12 15 16 18 20 22 25 27 29 33 35 32 33 33 34 35 34 36 37 32 29 32
32 33 34 35 36 34 35 35 34 36 40 45 43 44 39 36 31 26 23 29 24 18 15 15 19 23 23 24 25 26 27 28 30 32 37 38 39 37 37 36 35 32 33
33 34 35 36 34 35 37 38 37 35 37 41 41 47 31 32 29 23 22 26 24 22 22 24 21 20 24 21 23 24 26 29 30 31 33 35 35 34 33 33 34 33 35
30 33 35 37 40 34 33 33 36 39 39 40 36 41 41 27 28 28 25 21 20 20 21 18 16 18 16 16 18 18 19 22 26 29 31 33 34 34 36 35 37 35 34
35 35 36 40 40 39 33 28 29 34 40 42 40 34 37 31 30 22 19 18 17 18 15 15 17 18 17 16 15 14 18 23 24 27 30 31 33 34 35 36 37 39 38
36 38 42 41 41 39 39 32 27 31 39 44 44 39 34 38 42 40 31 22 21 21 16 15 15 15 12 17 14 15 21 22 22 25 28 29 33 34 35 37 37 37 37
44 47 47 45 44 42 39 39 31 27 31 33 36 42 43 39 35 34 26 28 29 21 16 19 15 15 12 11 10 14 17 20 23 25 25 27 28 28 27 36 39 40 40
44 48 49 49 48 47 47 36 37 34 28 31 37 42 47 46 44 40 35 29 34 39 33 17 22 20 17 10 13 15 18 20 19 23 21 17 19 33 38 38 37 38 40
42 45 45 47 48 50 47 45 42 39 41 33 33 36 37 43 44 48 42 36 33 33 60 30 19 17 16 18 16 17 23 23 25 28 27 26 31 37 37 20 14 34 37
44 44 48 47 44 49 45 46 48 44 44 44 42 39 43 42 40 40 42 48 42 33 38 48 42 29 19 18 16 20 16 26 25 26 31 34 34 36 35 34 19 9 36
43 51 49 46 44 44 46 44 42 42 45 47 47 47 44 42 43 44 44 38 38 42 34 36 35 49 35 20 19 18 16 19 21 27 35 37 37 38 37 38 36 25 23
23 24 48 50 44 39 38 38 37 37 41 43 46 48 46 43 45 46 41 43 44 38 41 39 32 39 48 38 25 26 22 15 17 23 34 39 38 39 40 40 34 34 38
18 21 45 45 39 35 37 35 32 34 34 42 42 46 49 47 45 42 43 43 50 49 46 44 44 41 39 43 37 32 18 16 17 28 37 39 39 40 40 39 35 37 36
15 16 16 23 27 29 28 30 31 30 32 38 41 45 45 46 46 33 33 40 35 41 48 46 45 46 44 41 37 32 26 22 23 36 40 41 40 40 39 37 35 36 36
13 13 14 14 15 19 16 14 17 20 22 31 37 40 38 43 43 39 35 33 34 35 40 41 42 43 46 44 39 33 30 26 30 26 31 36 40 37 39 36 32 35 35
14 12 12 13 11 11 19 18 17 13 14 19 32 40 43 45 49 46 43 42 41 40 40 42 40 39 39 42 41 38 34 31 31 29 36 39 40 37 37 34 32 34 31
15 13 12 10 11 12 13 14 15 17 20 17 19 23 30 44 47 50 48 45 47 43 41 42 40 38 39 38 42 43 39 37 39 40 36 36 38 39 38 31 35 34 30
8 8 9 8 8 11 12 12 11 13 13 14 13 16 33 42 53 50 44 47 45 43 42 41 42 37 36 42 38 43 39 37 38 40 41 41 40 38 36 31 34 34 22
5 6 6 5 3 4 5 7 9 10 10 12 13 14 31 36 35 41 43 46 41 40 39 42 40 40 38 35 40 44 40 37 35 35 38 38 36 35 35 33 31 30 26
3 4 4 5 1 0 1 3 3 3 3 8 13 11 11 39 29 34 32 33 36 42 40 45 41 43 40 40 37 37 36 38 38 39 42 39 39 38 33 29 33 29 31
7 5 9 8 7 7 7 6 4 3 3 8 14 17 24 31 36 32 28 33 38 29 44 46 45 39 35 41 45 40 36 36 34 35 36 37 35 32 28 25 33 29 34
12 13 10 11 12 14 17 15 19 14 9 9 13 21 26 30 34 34 34 37 40 42 42 42 40 39 41 37 36 39 41 40 39 37 37 35 32 30 24 13 12 27 25
23 23 19 17 22 23 21 22 21 19 11 14 18 23 27 29 31 30 30 34 38 38 40 40 41 39 40 42 39 38 38 39 37 36 34 33 31 25 9 14 19 30 5
25 23 22 19 24 24 24 23 24 23 21 10 16 23 26 28 28 27 29 33 37 37 38 39 38 39 40 39 37 36 36 35 33 33 32 31 27 7 18 28 22 5 6
12 11 19 22 19 20 20 23 20 21 23 22 14 17 23 25 25 27 31 34 36 35 34 36 36 38 37 36 36 35 34 34 33 32 31 31 12 21 31 26 7 5 7
Wind_Direction
312 312 313 311 309 305 301 299 296 293 288 283 282 283 280 278 272 279 295 278 262 233 263 268 280 288 294 298 303 304 300 302 302 307 306 307 310 309 307 307 305 304 303
309 309 304 311 307 307 306 304 300 296 294 289 283 280 278 277 277 281 291 271 300 278 273 282 289 291 291 296 298 302 301 299 308 306 306 303 303 309 306 302 304 304 302
311 310 309 306 306 307 307 306 306 302 295 293 289 285 275 273 277 278 241 263 282 282 285 284 294 289 295 300 299 305 307 305 304 304 299 297 297 302 304 305 302 302 302
314 312 309 306 307 301 301 303 304 305 302 284 296 294 272 274 274 273 266 267 274 278 281 284 291 286 291 300 297 300 301 300 300 302 301 297 297 304 309 311 307 304 298
313 312 309 305 301 305 305 307 302 297 296 291 290 287 291 275 271 269 268 266 272 274 278 282 284 287 295 296 302 303 302 303 302 300 299 298 299 302 302 306 303 303 302
308 309 306 302 302 301 305 306 309 300 287 282 280 286 288 281 288 273 271 275 279 284 280 280 282 283 281 289 294 298 300 300 302 302 300 300 301 302 304 305 303 297 293
307 305 301 300 299 299 299 302 301 302 288 281 279 274 282 269 263 270 268 273 275 275 271 270 270 277 274 278 286 293 291 295 300 303 302 304 302 305 307 300 304 299 294
303 302 300 298 296 295 295 295 299 295 294 288 284 279 270 273 279 281 288 280 274 272 269 267 269 265 264 269 281 287 291 296 298 299 305 308 311 318 324 302 292 292 285
301 301 297 291 292 292 294 292 289 292 289 289 282 276 267 265 270 274 277 282 274 266 260 252 259 265 271 259 274 284 292 296 303 305 314 320 323 304 300 285 278 281 283
302 301 297 293 290 286 286 288 289 283 284 285 283 278 278 268 272 264 268 272 273 266 236 254 249 251 256 265 269 279 284 291 295 297 303 309 302 291 296 321 248 265 273
303 299 294 289 292 285 286 282 279 282 279 277 277 276 271 269 271 270 267 259 264 267 266 247 257 267 246 257 239 272 269 288 292 297 297 297 298 294 301 305 326 311 272
304 293 289 288 292 288 282 281 279 280 277 274 272 270 270 269 266 265 265 267 264 262 265 265 266 248 265 247 244 236 237 280 289 293 289 288 291 289 293 289 301 314 314
270 288 283 285 288 289 286 284 284 279 278 275 271 267 267 268 266 263 266 262 261 263 257 261 266 264 257 260 222 218 222 257 279 290 287 281 288 289 289 285 305 300 278
259 253 285 287 292 291 288 285 283 281 278 274 272 268 265 265 265 266 263 262 254 253 256 257 259 263 266 260 267 266 245 246 271 282 277 281 289 289 281 293 298 290 275
285 282 289 305 302 297 293 290 286 282 279 275 272 267 265 262 262 270 265 259 265 260 255 255 258 259 260 261 262 264 263 268 273 270 273 274 287 288 287 290 285 279 267
271 272 268 265 251 242 248 274 272 259 268 278 272 270 269 264 260 263 264 265 267 269 259 253 254 255 254 255 259 261 263 263 271 280 283 283 273 284 278 275 295 279 257
269 281 293 257 280 271 237 238 240 253 258 273 277 273 268 265 260 259 260 261 264 265 259 254 253 255 256 255 255 257 261 264 270 277 277 276 268 277 267 287 294 279 270
266 284 303 282 277 260 257 259 260 250 243 255 248 264 261 264 260 256 256 258 257 258 258 255 252 253 255 257 255 255 257 262 265 269 273 271 265 267 269 291 283 263 234
278 304 327 311 278 257 258 255 259 252 257 257 264 265 271 261 240 250 252 251 251 252 252 254 249 251 254 253 254 251 255 260 262 266 266 260 261 267 277 290 280 239 209
326 313 269 260 291 283 270 275 268 260 268 289 287 275 271 262 259 250 248 244 247 248 249 248 247 245 249 251 247 246 251 254 261 265 261 259 267 272 277 282 272 220 203
42 49 66 56 63 316 302 237 243 260 262 209 204 197 276 234 252 245 246 245 245 242 242 238 241 240 243 244 245 247 251 255 259 258 249 257 264 268 276 279 244 214 209
67 79 65 65 68 70 62 57 54 93 141 182 191 181 179 185 217 230 241 239 234 240 227 228 231 238 241 239 236 243 250 252 255 251 255 255 264 270 272 275 241 253 223
78 70 74 69 71 69 64 67 65 87 107 122 161 173 173 178 191 198 197 203 215 213 214 220 223 225 226 233 239 240 242 244 244 246 249 255 261 261 271 276 156 237 231
69 69 73 77 69 67 70 73 75 82 102 119 120 140 150 158 167 167 172 179 201 209 209 211 212 223 224 227 235 238 234 231 239 246 248 253 251 261 262 152 149 218 238
71 72 73 80 77 74 76 80 79 83 90 118 136 138 144 145 146 151 161 170 187 199 198 198 203 205 208 218 225 227 229 234 245 246 248 247 251 255 155 173 228 143 114
77 76 78 80 82 82 82 83 89 89 92 99 122 142 142 145 148 152 165 169 177 190 200 199 202 204 210 215 221 227 231 236 242 244 243 239 252 226 209 215 150 122 99